Weather in Ariel

Israel     32°06′19″N   35°11′31″E
temp.,
°C
wind,
m/s
gust,
m/s
humid.,
%
clouds,
%
prec.,
mm/h
press.,
hPa
HPBL,
m
21 january, thu
thu2123:00+5wnw378125 0.0 1027298
02:00+4nw237833 0.0 102729
05:00+3nw33682 0.0 102835
08:00+6n25661 0.0 1029376
11:00+9n45550 0.0 1031830
14:00+10n44560 0.0 10291010
17:00+7ne33721 0.0 102957
20:00+6ne22761 0.0 102927
22 january, fri
fri2223:00+5e33730 0.0 102943
02:00+5e45650 0.0 102875
05:00+5e57520 0.0 1027108
08:00+6e712440 0.0 1028276
11:00+9ese1013370 0.0 1027517
14:00+11ese1011310 0.0 1023556
17:00+9e710320 0.0 1023145
20:00+7e793032 0.0 1023131
23 january, sat
sat2323:00+7ese7102796 0.0 1023147
02:00+7ese8112983 0.0 1022167
05:00+6ese793285 0.0 1022139
08:00+6ese563690 0.0 1022157
11:00+9ese563217 0.0 1022282
14:00+11ese45319 0.0 1019345
17:00+8e23410 0.0 101924
20:00+8e45360 0.0 102051
24 january, sun
sun2423:00+8e56340 0.0 102066
02:00+7e34370 0.0 101927
05:00+5e12430 0.0 101922
08:00+8se01550 0.0 102122
11:00+12ese233262 0.0 1020301
14:00+13se113081 0.0 1018434
17:00+9wnw226033 0.0 101922
20:00+7nne016517 0.0 102022
25 january, mon
mon2523:00+7e11550 0.0 102022
02:00+7se12500 0.0 101922
05:00+5wnw11520 0.0 101922
08:00+9w11590 0.0 102122
11:00+13wsw01370 0.0 1021402
14:00+14nw22420 0.0 1019609
17:00+10wnw12660 0.0 101922
20:00+8wnw01770 0.0 102122